N7FEQ Weather Reports


time (UTC)temp
C
wind
direction
speed
KPH
gust
KPH
rain 1hr
cm
rain 24hr
cm
rain mn
cm
humidity
%
barometer
mb
20260505123338 6 0 12.9 19.3 0.00 0.89 0.00 83 1011.6
20260505121316 6 0 12.9 17.7 0.00 0.89 0.00 83 1011.7
20260505120302 6 0 12.9 20.9 0.00 0.89 0.00 83 1011.7
20260505115249 6 0 12.9 19.3 0.00 0.89 0.00 83 1011.6
20260505114251 6 0 11.3 20.9 0.00 0.89 0.00 83 1011.6
20260505113239 6 0 8.0 12.9 0.00 0.89 0.00 84 1011.6
20260505112235 6 0 8.0 14.5 0.00 0.89 0.00 84 1011.6
20260505111227 6 0 11.3 17.7 0.00 0.89 0.00 84 1011.6
20260505101109 6 0 4.8 8.0 0.00 0.89 0.00 85 1011.9
20260505100055 6 0 8.0 12.9 0.00 0.89 0.00 84 1011.9
20260505095028 6 0 8.0 14.5 0.00 0.89 0.00 84 1011.9
20260505094009 6 0 9.7 17.7 0.00 0.89 0.00 85 1012.0
20260505092959 6 0 11.3 19.3 0.00 0.89 0.00 84 1011.9
20260505091946 6 0 6.4 14.5 0.00 0.89 0.00 84 1012.0
20260505090918 6 0 9.7 19.3 0.00 0.89 0.00 85 1012.1
20260505084836 6 0 8.0 16.1 0.00 0.89 0.00 84 1012.0
20260505083820 6 0 9.7 16.1 0.00 0.89 0.00 85 1012.1
20260505082756 6 0 4.8 9.7 0.00 0.89 0.00 86 1012.4
20260505081739 6 0 6.4 14.5 0.00 0.89 0.00 85 1012.4
20260505075659 6 0 8.0 16.1 0.00 0.89 0.00 84 1012.6
20260505074639 6 0 11.3 20.9 0.00 0.89 0.00 85 1012.7
20260505073616 6 0 4.8 12.9 0.00 0.89 0.00 88 1012.7
20260505072556 6 0 3.2 8.0 0.00 0.89 0.00 86 1013.0
20260505071539 6 314 1.6 6.4 0.00 0.89 0.00 85 1012.8
20260505070518 6 319 3.2 6.4 0.00 0.89 0.00 84 1012.5
20260505064446 6 0 16.1 25.7 0.00 0.89 0.89 82 1012.4
20260505062411 6 0 11.3 22.5 0.00 0.89 0.89 81 1011.3
20260505061351 7 0 11.3 25.7 0.00 0.89 0.89 81 1011.4
20260505060330 7 288 12.9 24.1 0.00 0.89 0.89 82 1011.4
20260505055316 6 0 14.5 25.7 0.00 0.89 0.89 83 1011.4
20260505054249 6 0 16.1 27.4 0.00 0.89 0.89 83 1011.6
20260505053229 6 0 17.7 27.4 0.03 0.89 0.89 83 1011.9
20260505052209 6 0 17.7 33.8 0.03 0.89 0.89 83 1011.9
20260505051149 6 0 22.5 40.2 0.03 0.89 0.89 83 1012.3
20260505050132 6 0 24.1 37.0 0.03 0.89 0.89 83 1012.4
20260505040955 6 0 17.7 27.4 0.10 0.86 0.86 86 1011.7
20260505035935 6 0 16.1 29.0 0.10 0.84 0.84 85 1011.9
20260505034916 6 0 24.1 37.0 0.08 0.81 0.81 84 1012.3
20260505033855 6 0 25.7 37.0 0.08 0.81 0.81 84 1012.0
20260505032838 6 0 20.9 38.6 0.08 0.81 0.81 84 1011.8
20260505031816 6 0 27.4 40.2 0.05 0.79 0.79 84 1011.7
20260505025734 6 0 24.1 35.4 0.03 0.74 0.74 83 1011.9
20260505023657 6 0 24.1 40.2 0.10 0.74 0.74 82 1012.0
20260505021619 6 0 22.5 40.2 0.36 0.74 0.74 87 1011.4
20260505020557 6 0 27.4 43.5 0.38 0.74 0.74 85 1011.4
20260505014531 7 0 25.7 41.8 0.51 0.71 0.71 85 1011.8
20260505013506 7 0 19.3 32.2 0.48 0.64 0.64 84 1012.5
20260505011436 8 0 11.3 20.9 0.23 0.38 0.38 83 1012.6
20260505010423 8 0 16.1 35.4 0.20 0.36 0.36 81 1011.9
20260505005407 8 296 19.3 35.4 0.15 0.30 0.30 78 1011.8
20260505004357 10 0 14.5 35.4 0.03 0.18 0.18 72 1012.0
20260505003343 10 0 24.1 46.7 0.00 0.15 0.15 69 1011.3
20260505001327 11 0 0.0 0.0 0.00 0.15 0.15 63 1010.7
20260505000315 11 0 0.0 0.0 0.00 0.15 0.15 61 1010.6
20260504235301 12 0 0.0 0.0 0.00 0.15 0.15 60 1010.6
20260504233230 12 0 0.0 0.0 0.00 0.15 0.15 58 1010.5
20260504232221 12 0 0.0 0.0 0.00 0.15 0.15 62 1010.4
20260504231209 12 0 0.0 0.0 0.00 0.15 0.15 62 1010.5
20260504224130 12 0 0.0 0.0 0.00 0.25 0.15 63 1011.1
20260504223110 12 0 0.0 0.0 0.00 0.25 0.15 62 1011.1
20260504221040 13 0 0.0 0.0 0.00 0.25 0.15 61 1011.1
20260504215000 13 0 0.0 0.0 0.00 0.25 0.15 60 1010.9
20260504213949 13 196 0.0 0.0 0.00 0.25 0.15 63 1011.2
20260504212928 13 0 0.0 0.0 0.05 0.25 0.15 62 1011.4
20260504211911 12 0 0.0 0.0 0.08 0.25 0.15 70 1011.7
20260504210849 12 0 0.0 0.0 0.10 0.25 0.15 74 1011.7
20260504205831 12 0 0.0 0.0 0.10 0.25 0.15 73 1011.7
20260504204808 12 0 0.0 0.0 0.10 0.25 0.15 77 1011.9
20260504203745 11 0 0.0 3.2 0.10 0.25 0.15 78 1012.1
20260504202728 11 0 0.0 4.8 0.03 0.18 0.08 71 1012.1
20260504201707 11 0 0.0 0.0 0.03 0.18 0.08 72 1012.4
20260504200646 12 0 0.0 0.0 0.00 0.15 0.05 67 1012.0
20260504195635 12 0 0.0 0.0 0.00 0.15 0.05 63 1012.0
20260504194616 12 0 0.0 0.0 0.00 0.15 0.05 60 1012.0
20260504193556 12 0 0.0 0.0 0.00 0.15 0.05 61 1012.3
20260504192535 12 0 0.0 0.0 0.00 0.15 0.05 62 1012.3
20260504191517 12 0 0.0 0.0 0.00 0.15 0.05 60 1012.4
20260504190458 13 0 0.0 0.0 0.00 0.15 0.05 60 1012.3
20260504185435 13 0 0.0 0.0 0.00 0.15 0.05 61 1012.3
20260504184415 13 0 0.0 0.0 0.00 0.15 0.05 65 1012.4
20260504183352 12 0 0.0 0.0 0.00 0.15 0.05 69 1012.5
20260504182333 11 0 0.0 0.0 0.00 0.15 0.05 72 1012.5
20260504181316 11 0 0.0 0.0 0.00 0.15 0.05 67 1012.7
20260504175231 11 0 11.3 29.0 0.00 0.15 0.05 72 1012.7
20260504170119 9 0 14.5 25.7 0.05 0.15 0.05 77 1012.7
20260504150930 10 0 9.7 20.9 0.00 0.10 0.00 66 1012.3
20260504140731 9 0 17.7 29.0 0.00 0.10 0.00 64 1011.9